Skip Page Navigation
NASA JPL Caltech
NASA Logo - Jet Propulsion Laboratory + View the NASA Portal
+ Center for Near-Earth Object Studies
JPL Home Earth Solar System Stars & Galaxies Technology
JPL Solar System Dynamics
BODIES ORBITS EPHEMERIDES TOOLS PHYSICAL DATA DISCOVERY FAQ SITE MAP
JPL Small-Body Database Browser
Search: [ help ]  
58596 (1997 TC10)
Classification: Main-belt Asteroid          SPK-ID: 2058596
Ephemeris | Orbit Diagram | Orbital Elements | Mission Design | Physical Parameters | Discovery Circumstances | Close-Approach Data ]

[ hide orbit diagram ]

For accurate long-term ephemerides, please instead use our Horizons system.This orbit viewer was implemented using two-body methods, and hence should not be used for determining accurate long-term trajectories (over several years or decades) or planetary encounter circumstances.


[ revert to old Java-based viewer ]

Orbital Elements at Epoch 2459000.5 (2020-May-31.0) TDB
Reference: JPL 16 (heliocentric ecliptic J2000)
 Element Value Uncertainty (1-sigma)   Units 
e .1668426572323105 6.1066e-08  
a 2.441629835811427 1.1042e-08 au
q 2.034261826026958 1.5028e-07 au
i 2.16825709663709 6.6326e-06 deg
node 40.28031092070126 0.0001237 deg
peri 8.58771468698289 0.00012535 deg
M 325.3195223678165 1.6942e-05 deg
tp 2459134.745807342816
(2020-Oct-12.24580734)
6.5499e-05 TDB
period 1393.535900975161
3.82
9.4533e-06
2.588e-08
d
yr
n .2583356480074042 1.7525e-09 deg/d
Q 2.848997845595895 1.2884e-08 au
  Orbit Determination Parameters
   # obs. used (total)      409  
   data-arc span      9907 days (27.12 yr)  
   first obs. used      1993-09-10  
   last obs. used      2020-10-25  
   planetary ephem.      DE431  
   SB-pert. ephem.      SB431-N16  
   condition code      0  
   norm. resid. RMS      .6481  
   source      ORB  
   producer      Otto Matic  
   solution date      2020-Nov-12 22:50:30  

Additional Information
 Earth MOID = 1.04445 au 
 Jupiter MOID = 2.52369 au 
 T_jup = 3.481 
[ show covariance matrix ]

Ephemeris | Orbit Diagram | Orbital Elements | Mission Design | Physical Parameters | Discovery Circumstances | Close-Approach Data ]

Physical Parameter Table
Parameter Symbol Value Units Sigma Reference Notes
absolute magnitude H 16.5   n/a MPO436191  

58596 (1997 TC10)          Discovered 1997-Oct-06 by Pravec, P. at Ondrejov
Reference: 20030614/Numbers.arcLast Updated: 2004-04-19

[ show close-approach data ]
Ephemeris | Orbit Diagram | Orbital Elements | Mission Design | Physical Parameters | Discovery Circumstances | Close-Approach Data ]
ABOUT SSD CREDITS/AWARDS PRIVACY/COPYRIGHT GLOSSARY LINKS
FirstGov 2020-Nov-30 15:34 UT
(server date/time)  
NASA Home Page
Site Manager:   Ryan S. Park
Webmaster  Alan B. Chamberlin